Location: BS-Broitzem
(52.2300°N, 10.4800°E)
Time: 19:18:50
(UTC+01:00)

BlueWalker 3 - Visible Passes

Search period start: 12 December 2025 00:00
Search period end: 22 December 2025 00:00
Orbit: 455 x 462 km, 53.2° (Epoch: 11 December)

Date Brightness Start Highest point End Pass type
(mag) Time Alt. Az. Time Alt. Az. Time Alt. Az.
12 Dec 4.8 16:45:34 10° W 16:48:10 19° SW 16:50:45 10° S visible
20 Dec 4.6 07:13:51 10° S 07:16:37 21° SE 07:19:23 10° E visible
21 Dec 4.7 06:39:14 10° S 06:41:40 17° SE 06:44:07 10° E visible
